This demonstration page uses our WeatherBlox Daily Observations layout. Learn more.

Left ArrowRight Arrow

34.02893, -84.19858

Hourly Observations for November 16, 2019

Temp ( °F °C ) Dew Point ( °F °C ) Humidity (%) Winds ( mph kmh ) Pressure ( in mb ) Visibility ( mi km ) Precip ( " mm )
1:53 am 01:53 Cloudy 43 6.1 39 3.9 86 86 NW 3 6 30.07 1018 10 16 0.00 0.00
2:53 am 02:53 Cloudy 42 5.6 38 3.3 85 85 NNW 3 6 30.07 1018 10 16 0.00 0.00
3:53 am 03:53 Cloudy 41 5 36 2.2 82 82 NNW 5 7 30.07 1018 10 16 0.00 0.00
4:53 am 04:53 Cloudy 41 5 38 3.3 89 89 Calm 30.08 1019 10 16 0.00 0.00
5:53 am 05:53 Cloudy 41 5 35 1.7 79 79 NNW 5 7 30.09 1019 10 16 0.00 0.00
6:53 am 06:53 Cloudy 40 4.4 36 2.2 86 86 NW 5 7 30.11 1020 10 16 0.00 0.00
7:53 am 07:53 Cloudy 40 4.4 35 1.7 83 83 NW 7 11 30.11 1020 10 16 0.00 0.00
8:53 am 08:53 Sunny 43 6.1 36 2.2 76 76 NW 7 11 30.12 1020 10 16 0.00 0.00
9:53 am 09:53 Mostly Sunny 47 8.3 37 2.8 69 69 Calm 30.11 1020 10 16 0.00 0.00
10:53 am 10:53 Mostly Cloudy 53 11.7 37 2.8 55 55 N 3 6 30.11 1020 10 16 0.00 0.00
11:53 am 11:53 Sunny 58 14.4 36 2.2 44 44 N 3 6 30.07 1018 10 16 0.00 0.00
12:53 pm 12:53 Sunny 62 16.7 35 1.7 37 37 E 6 9 30.04 1017 10 16 0.00 0.00
1:53 pm 13:53 Cloudy 64 17.8 36 2.2 35 35 N 5 7 30.02 1017 10 16 0.00 0.00
2:53 pm 14:53 Mostly Cloudy 64 17.8 38 3.3 38 38 N 7 11 30.01 1016 10 16 0.00 0.00
3:53 pm 15:53 Cloudy 62 16.7 39 3.9 43 43 NW 12 19 30.02 1017 10 16 0.00 0.00
4:53 pm 16:53 Cloudy 59 15 38 3.3 46 46 NW 7 11 30.04 1017 10 16 0.00 0.00
5:53 pm 17:53 Mostly Clear 53 11.7 38 3.3 57 57 Calm 30.05 1018 10 16 0.00 0.00
6:53 pm 18:53 Cloudy 53 11.7 38 3.3 57 57 NNW 3 6 30.06 1018 10 16 0.00 0.00
7:53 pm 19:53 Cloudy 51 10.6 37 2.8 59 59 N 3 6 30.08 1019 10 16 0.00 0.00
8:53 pm 20:53 Cloudy 50 10 36 2.2 59 59 Calm 30.09 1019 10 16 0.00 0.00
9:53 pm 21:53 Cloudy 49 9.4 36 2.2 61 61 Calm 30.09 1019 10 16 0.00 0.00
10:53 pm 22:53 Mostly Clear 44 6.7 38 3.3 79 79 Calm 30.08 1019 10 16 0.00 0.00
11:53 pm 23:53 Mostly Clear 42 5.6 37 2.8 82 82 Calm 30.07 1018 10 16 0.00 0.00

Powered by AerisWeather